[[{"header":{"parameterUnit":"m.s-1","parameterCategory":1,"la1":30.2991,"la2":30.254,"lo1":-89.0895,"lo2":-89.0444,"dy":0.0017,"dx":0.0017,"nx":28,"ny":28,"refTime":"2026-01-01T09:00:00:Z","depth":0,"parameterNumber":2,"parameterNumberName":"U-component_of_WINDS"},"data":[0,0,0,0,0,0,0,0,0,0,0,0,0,0,0,0,0,0,0,0,0,0,0,0,0,0,0,0,0,0,0,0,0,0,0,0,0,0,0,0,0,0,0,0,0,0,0,0,0,0,0,0,0,0,0,0,0,0,2.4273,2.4274,0,2.434,2.434,2.4341,2.4322,2.4321,2.432,2.4318,2.4388,2.4391,2.4394,0,0,0,0,0,0,0,0,0,0,0,0,0,2.4131,2.4133,2.4273,2.4274,2.4275,2.4339,2.434,2.4341,2.4322,2.4321,2.4319,2.4318,2.4387,2.4391,2.4394,0,0,0,0,0,0,0,0,0,0,0,0,0,2.4194,2.4134,2.4273,2.4273,2.4274,2.4339,2.434,2.4342,2.4323,2.4321,2.4319,2.4317,2.4386,2.439,2.4395,2.4465,0,0,2.4409,2.4411,0,0,0,0,0,0,0,0,2.4191,2.42,2.4272,2.4273,2.4274,2.432,2.4316,2.4383,2.4323,2.4304,2.4318,2.4316,2.4367,2.4373,2.439,2.4468,2.4471,2.441,2.4412,2.4414,2.4416,0,0,0,0,0,0,0,2.4186,2.4197,2.4299,2.4273,2.4274,2.427,2.4277,2.4328,2.4346,2.4306,2.4305,2.4313,2.4367,2.4386,2.4392,2.4472,2.4409,2.4414,2.4416,2.4418,2.461,2.4613,0,0,0,0,0,0,2.4181,2.4193,2.4297,2.4301,2.4226,2.4274,2.4282,2.4308,2.4346,2.435,2.4314,2.4311,2.4379,2.4386,2.4394,2.4479,2.4414,2.4419,2.4421,2.4608,2.4611,2.4613,0,0,0,0,0,0,2.4178,2.4191,2.4295,2.4247,2.426,2.4279,2.4308,2.431,2.4329,2.4352,2.4355,2.433,2.4377,2.4388,2.4447,2.4481,2.4421,2.4425,2.4605,2.4609,2.4612,2.4648,0,0,0,0,0,0,2.4174,2.419,2.4216,2.4248,2.4262,2.4346,2.431,2.4313,2.4337,2.4333,2.4368,2.4371,2.4377,2.444,2.4452,2.4486,2.4429,2.4602,2.4607,2.4611,2.4644,2.4652,2.4659,0,0,0,0,0,2.4169,2.4224,2.4218,2.423,2.4296,2.4348,2.4357,2.4361,2.4339,2.4366,2.4381,2.437,2.4475,2.4447,2.4459,2.4496,2.46,2.4606,2.4611,2.464,2.4651,2.4659,0,0,0,0,0,0,2.4196,2.4228,2.4221,2.4288,2.4315,2.4345,2.4379,2.4372,2.4407,2.4402,2.4407,2.4415,2.4476,2.4492,2.4459,2.4565,2.4535,2.4543,2.4553,2.4563,2.457,2.4565,2.4433,0,0,0,0,0,2.421,2.4249,2.4275,2.4331,2.4345,2.436,2.4383,2.4384,2.4413,2.4425,2.4444,2.4473,2.4512,2.4538,2.4576,2.4646,2.4653,2.4677,2.4685,2.4691,2.4698,2.4737,2.4748,2.463,2.463,2.463,0,0,2.4239,2.4261,2.4286,2.4337,2.4359,2.44,2.437,2.4415,2.4445,2.4432,2.4489,2.4504,2.4537,2.4602,2.4632,2.4617,2.4732,2.4698,2.4702,2.4706,2.4743,2.4754,2.4764,2.4634,2.4633,2.4633,0,0,2.4312,2.4333,2.4382,2.4404,2.4437,2.4446,2.4458,2.4488,2.4498,2.4555,2.4546,2.4583,2.465,2.4674,2.4695,2.4777,2.4768,2.4789,2.483,2.4867,2.4877,2.4885,2.4914,2.4925,2.4796,2.4796,2.4796,0,2.4344,2.4405,2.4408,2.4454,2.4477,2.4466,2.4516,2.4537,2.4581,2.4597,2.458,2.4665,2.4686,2.4756,2.4776,2.4794,2.4808,2.4786,2.4875,2.4883,2.4891,2.4919,2.493,2.4799,2.4798,2.4798,2.4798,0,2.4442,2.4485,2.4521,2.4563,2.459,2.4638,2.4648,2.4675,2.4674,2.4685,2.4744,2.4769,2.4812,2.4828,2.4828,2.4899,2.4889,2.4873,2.4843,2.4904,2.4931,2.4942,2.4802,2.4801,2.48,2.48,0,0,2.4535,2.4578,2.4591,2.461,2.4645,2.4678,2.4726,2.4767,2.479,2.4821,2.4861,2.4918,2.4904,2.4927,2.4929,2.4962,2.5026,2.4942,2.4943,2.4957,2.5106,2.5118,2.5131,2.502,2.5022,2.5024,2.5104,0,2.4611,2.4694,2.4698,2.4774,2.4813,2.4803,2.4845,2.4871,2.4883,2.4918,2.4931,2.4972,2.495,2.4964,2.4996,2.5011,2.5056,2.5006,2.5058,2.506,2.505,2.5145,2.5157,2.5232,2.5114,2.5116,2.5117,0,2.4712,2.4745,2.4824,2.4854,2.4871,2.4908,2.4946,2.498,2.501,2.5016,2.5042,2.5039,2.5088,2.5055,2.5123,2.5089,2.511,2.5121,2.5124,2.5129,2.5092,2.5153,2.5255,2.5267,2.5134,2.5132,2.5131,0,2.4771,2.4836,2.4892,2.4908,2.4944,2.4971,2.4987,2.5015,2.5039,2.5073,2.5089,2.5127,2.5149,2.5179,2.5187,2.5162,2.5254,2.5222,2.5261,2.5261,2.5281,2.528,2.5389,2.5295,2.5295,2.5294,2.5294,0,2.4857,2.4906,2.4919,2.4954,2.5008,2.5013,2.5067,2.5081,2.5106,2.5143,2.5137,2.5172,2.518,2.5217,2.5224,2.5279,2.5289,2.5295,2.5297,2.5296,2.5295,2.5311,2.5306,2.5297,2.5297,2.5296,2.5296,0,2.4933,2.4944,2.5004,2.5033,2.5042,2.5081,2.5106,2.5139,2.515,2.5197,2.5208,2.5226,2.5269,2.528,2.5331,2.5335,2.5401,2.5397,2.539,2.539,2.5429,2.5425,2.5552,2.5569,2.5463,2.5464,2.5465,0,2.4986,2.5024,2.5057,2.5081,2.5099,2.5138,2.5163,2.5169,2.5195,2.5232,2.5261,2.5303,2.5337,2.5407,2.5424,2.5464,2.5461,2.5503,2.5467,2.5465,2.5462,2.546,2.5464,2.5509,2.5511,2.5511,2.5512,0,2.5081,2.5084,2.512,2.5158,2.5188,2.5219,2.5248,2.5268,2.5278,2.5308,2.5352,2.5378,2.5431,2.5473,2.5513,2.553,2.5523,2.5523,2.5534,2.5535,2.5529,2.5533,2.5409,2.552,2.552,2.5519,2.5519,2.5518,2.5147,2.518,2.5209,2.5249,2.5272,2.5299,2.5331,2.5346,2.5383,2.5426,2.5427,2.5475,2.5504,2.5557,2.5576,2.5614,2.5601,2.5617,2.5622,2.5625,2.5629,2.5523,2.5621,2.5621,2.5621,2.562,2.562,0,2.5241,2.5259,2.5296,2.5337,2.5369,2.5359,2.5391,2.5418,2.546,2.5488,2.5522,2.5572,2.5613,2.5634,2.5674,2.5701,2.5699,2.5711,2.5709,2.5714,2.5638,2.5624,2.5712,2.5712,2.5712,2.5712,2.5712,2.5712,2.5294,2.5349,2.5356,2.5423,2.544,2.5487,2.5506,2.5531,2.5553,2.561,2.5644,2.5656,2.5681,2.5724,2.5761,2.5766,2.5781,2.5796,2.5799,2.5728,2.5719,2.571,2.5697,2.5799,2.5799,2.5872,2.5872,2.5873]},{"header":{"parameterUnit":"m.s-1","parameterCategory":1,"la1":30.2991,"la2":30.254,"lo1":-89.0895,"lo2":-89.0444,"dy":0.0017,"dx":0.0017,"nx":28,"ny":28,"refTime":"2026-01-01T09:00:00:Z","depth":0,"parameterNumber":3,"parameterNumberName":"V-component_of_WINDS"},"data":[0,0,0,0,0,0,0,0,0,0,0,0,0,0,0,0,0,0,0,0,0,0,0,0,0,0,0,0,0,0,0,0,0,0,0,0,0,0,0,0,0,0,0,0,0,0,0,0,0,0,0,0,0,0,0,0,0,0,6.5485,6.5487,0,6.5632,6.5633,6.5635,6.5629,6.5627,6.5625,6.5623,6.5768,6.5774,6.578,0,0,0,0,0,0,0,0,0,0,0,0,0,6.5196,6.5201,6.5485,6.5487,6.5489,6.5631,6.5633,6.5635,6.5629,6.5627,6.5624,6.5622,6.5766,6.5773,6.578,0,0,0,0,0,0,0,0,0,0,0,0,0,6.533,6.5203,6.5485,6.5503,6.5506,6.5631,6.5634,6.5636,6.563,6.5627,6.5624,6.5621,6.5764,6.5773,6.5781,6.5896,0,0,6.5808,6.5811,0,0,0,0,0,0,0,0,6.5322,6.534,6.5499,6.5502,6.5506,6.5609,6.5585,6.5723,6.563,6.5583,6.5623,6.5619,6.5718,6.573,6.5764,6.5903,6.5909,6.5808,6.5814,6.5817,6.582,0,0,0,0,0,0,0,6.5313,6.5334,6.5543,6.5501,6.5505,6.5502,6.5518,6.5611,6.5665,6.5587,6.5587,6.5604,6.5719,6.5756,6.5767,6.5911,6.5808,6.5816,6.5821,6.5825,6.6153,6.6156,0,0,0,0,0,0,6.53,6.5326,6.5538,6.5547,6.5405,6.551,6.5528,6.5579,6.5664,6.5675,6.5607,6.5603,6.5742,6.5757,6.5772,6.5914,6.5817,6.5826,6.5831,6.6149,6.6153,6.6157,0,0,0,0,0,0,6.5294,6.5319,6.5532,6.5437,6.5464,6.5518,6.5576,6.5583,6.562,6.568,6.5689,6.5635,6.574,6.576,6.5866,6.5919,6.5829,6.5837,6.6145,6.615,6.6155,6.6197,0,0,0,0,0,0,6.5286,6.5317,6.5363,6.5438,6.5469,6.5625,6.5579,6.5588,6.5636,6.5633,6.5708,6.5718,6.574,6.5853,6.5875,6.5929,6.5844,6.6141,6.6147,6.6154,6.6191,6.6203,6.6213,0,0,0,0,0,6.5276,6.5367,6.5365,6.539,6.5527,6.5628,6.5646,6.567,6.564,6.5685,6.5724,6.5715,6.5909,6.5864,6.5888,6.5946,6.6137,6.6146,6.6153,6.6186,6.62,6.6212,0,0,0,0,0,0,6.5295,6.5377,6.5376,6.5495,6.5555,6.5627,6.5685,6.5685,6.5753,6.5747,6.5773,6.579,6.5897,6.5931,6.588,6.6062,6.6019,6.6032,6.6036,6.605,6.6061,6.605,6.5851,0,0,0,0,0,6.5313,6.539,6.5457,6.5555,6.5586,6.563,6.5675,6.5689,6.5751,6.5776,6.5822,6.5882,6.5956,6.6005,6.6076,6.6195,6.6211,6.6247,6.6257,6.6266,6.6278,6.6344,6.636,6.6183,6.6183,6.6183,0,0,6.5351,6.5406,6.5452,6.5561,6.5609,6.5686,6.5652,6.5735,6.5793,6.5788,6.5892,6.5928,6.5996,6.6109,6.6161,6.6141,6.633,6.6276,6.6283,6.629,6.6353,6.637,6.6385,6.6188,6.6187,6.6187,0,0,6.5461,6.551,6.5598,6.5647,6.5721,6.575,6.5771,6.5844,6.5868,6.5972,6.5971,6.6038,6.6166,6.6215,6.6257,6.6385,6.638,6.6407,6.6465,6.6529,6.6543,6.6555,6.6602,6.6618,6.6418,6.6418,6.6418,0,6.5499,6.5617,6.5642,6.5728,6.5775,6.5776,6.5865,6.5911,6.6003,6.6036,6.6012,6.6173,6.6219,6.6344,6.6375,6.6408,6.6433,6.6399,6.6539,6.6552,6.6564,6.6608,6.6626,6.6421,6.642,6.642,6.642,0,6.5661,6.5743,6.5805,6.5896,6.5951,6.6037,6.6074,6.6125,6.6134,6.6165,6.6271,6.6326,6.641,6.644,6.6448,6.6566,6.6552,6.6533,6.6491,6.6583,6.6626,6.6643,6.6425,6.6424,6.6423,6.6422,0,0,6.5787,6.5892,6.5915,6.5957,6.6038,6.6101,6.6187,6.627,6.6314,6.6377,6.645,6.6557,6.6541,6.6588,6.6602,6.6658,6.6757,6.6633,6.6635,6.6655,6.6891,6.6906,6.6925,6.6754,6.6757,6.676,6.6886,0,6.5907,6.6061,6.6086,6.6221,6.6297,6.6299,6.6374,6.6431,6.6462,6.653,6.6563,6.664,6.6612,6.6641,6.6696,6.6733,6.6805,6.6724,6.6821,6.6824,6.6806,6.6947,6.6963,6.7079,6.6902,6.6905,6.6907,0,6.6067,6.6137,6.628,6.6352,6.6385,6.6451,6.653,6.6595,6.6659,6.6678,6.6731,6.6738,6.6826,6.6779,6.69,6.6844,6.6885,6.6909,6.6914,6.6925,6.6872,6.6963,6.7116,6.7134,6.6933,6.6931,6.6929,0,6.6146,6.6276,6.6379,6.6414,6.65,6.6547,6.6585,6.6646,6.6695,6.6762,6.6794,6.687,6.6912,6.697,6.6997,6.696,6.7116,6.7071,6.7134,6.7134,6.7168,6.7166,6.7332,6.7192,6.7192,6.7191,6.7191,0,6.6278,6.6366,6.6416,6.6479,6.6577,6.6604,6.67,6.6736,6.6791,6.686,6.6865,6.693,6.6961,6.703,6.7051,6.7149,6.7167,6.7184,6.7189,6.7185,6.7183,6.7213,6.7206,6.7196,6.7195,6.7194,6.7193,0,6.6384,6.6421,6.6534,6.6606,6.6626,6.6696,6.6757,6.6818,6.6848,6.6936,6.6958,6.7005,6.7087,6.7119,6.7218,6.7233,6.7345,6.7343,6.7324,6.7326,6.7387,6.7382,6.7579,6.7607,6.7448,6.7449,6.745,0,6.6466,6.6534,6.6615,6.6663,6.6702,6.6779,6.6829,6.6857,6.6908,6.6987,6.7038,6.712,6.7187,6.7317,6.736,6.7435,6.7436,6.75,6.7447,6.7441,6.7438,6.7435,6.7442,6.751,6.7511,6.7513,6.7514,0,6.6609,6.6624,6.6697,6.6776,6.6836,6.69,6.6961,6.6999,6.7037,6.7094,6.7179,6.7231,6.7333,6.7414,6.7492,6.7529,6.7528,6.753,6.7549,6.7546,6.7533,6.7542,6.7352,6.7526,6.7524,6.7524,6.7523,6.7522,6.6707,6.6767,6.6834,6.6915,6.6964,6.7022,6.7083,6.7122,6.7193,6.728,6.7292,6.7382,6.7444,6.755,6.759,6.766,6.7643,6.767,6.7677,6.7684,6.7688,6.752,6.7674,6.7674,6.7673,6.7673,6.7673,0,6.685,6.6893,6.6967,6.7055,6.7118,6.7112,6.718,6.7233,6.7314,6.7372,6.7439,6.7536,6.7614,6.7663,6.7742,6.7788,6.779,6.7808,6.7806,6.7814,6.7698,6.7675,6.7806,6.7806,6.7806,6.7806,6.7806,6.7806,6.6933,6.7036,6.7059,6.7186,6.7228,6.7318,6.7358,6.741,6.7458,6.7567,6.7633,6.7664,6.7719,6.7802,6.7873,6.7885,6.7914,6.7934,6.7945,6.7836,6.7822,6.7809,6.7788,6.794,6.794,6.8056,6.8057,6.8058]}]]